Location: SFA Observatory
(31.7598°N, 94.6613°W)
Time: 14:31:26
(UTC-05:00)

Tiangong 2 - Visible Passes

Search period start: 21 July 2018 00:00
Search period end: 31 July 2018 00:00
Orbit: 386 x 394 km, 42.8° (Epoch: 21 July)

Date Brightness Start Highest point End Pass type
(mag) Time Alt. Az. Time Alt. Az. Time Alt. Az.
21 Jul 3.8 21:15:38 10° NNW 21:17:29 14° NNE 21:19:21 10° NE visible
21 Jul 3.7 22:51:45 10° NW 22:53:03 21° NW 22:53:03 21° NW visible
22 Jul 2.5 21:54:13 10° NW 21:57:03 29° NNE 21:57:47 26° NE visible
23 Jul 3.2 20:56:44 10° NNW 20:59:10 20° NNE 21:01:36 10° ENE visible
23 Jul 3.0 22:33:07 10° WNW 22:34:52 29° WNW 22:34:52 29° WNW visible
24 Jul 1.4 21:35:25 10° NW 21:38:34 56° NNE 21:39:40 33° E visible
25 Jul 2.8 22:14:45 10° W 22:16:51 26° WSW 22:16:51 26° WSW visible
26 Jul 1.3 21:16:46 10° WNW 21:19:56 63° SSW 21:21:46 22° SE visible
27 Jul 3.6 21:57:08 10° WSW 21:58:45 13° SW 21:59:04 13° SW visible
28 Jul 2.8 20:58:26 10° W 21:01:10 26° SW 21:03:54 10° SSE visible
30 Jul 3.9 20:41:03 10° WSW 20:42:18 12° SW 20:43:34 10° SSW visible
